This is the latest recevied weather packets stored in our database for station/object DL9SEC-13. If no packets are shown the sender has not sent any weather packets the latest 10 day(s).
| Time | Temp. | Humidity | Pressure | Rain* | Wind** | Luminosity | Snow |
|---|---|---|---|---|---|---|---|
| 1777513203 | 7.78° C | 40% | 1027.9 hPa | 0 mm | - | - | - |
| 1777512303 | 8.33° C | 39% | 1027.9 hPa | 0 mm | - | - | - |
| 1777511405 | 8.33° C | 39% | 1027.8 hPa | 0 mm | - | - | - |
| 1777510503 | 8.89° C | 39% | 1027.6 hPa | 0 mm | - | - | - |
| 1777509603 | 8.89° C | 38% | 1027.4 hPa | 0 mm | - | - | - |
| 1777508703 | 8.89° C | 38% | 1027.5 hPa | 0 mm | - | - | - |
| 1777507803 | 8.89° C | 38% | 1027.5 hPa | 0 mm | - | - | - |
| 1777506903 | 8.89° C | 38% | 1027.4 hPa | 0 mm | - | - | - |
| 1777506003 | 9.44° C | 37% | 1027.4 hPa | 0 mm | - | - | - |
| 1777505103 | 9.44° C | 37% | 1027.3 hPa | 0 mm | - | - | - |
| 1777504203 | 10° C | 38% | 1027.4 hPa | 0 mm | - | - | - |
| 1777503303 | 10° C | 36% | 1027.4 hPa | 0 mm | - | - | - |
| 1777502403 | 10.56° C | 36% | 1027.2 hPa | 0 mm | - | - | - |
| 1777501503 | 11.11° C | 35% | 1027.1 hPa | 0 mm | - | - | - |
| 1777500603 | 11.11° C | 34% | 1027 hPa | 0 mm | - | - | - |
| 1777499703 | 11.67° C | 35% | 1026.8 hPa | 0 mm | - | - | - |
| 1777498803 | 11.67° C | 35% | 1026.7 hPa | 0 mm | - | - | - |
| 1777497904 | 11.67° C | 37% | 1026.5 hPa | 0 mm | - | - | - |
| 1777497004 | 12.22° C | 34% | 1026.5 hPa | 0 mm | - | - | - |
| 1777496103 | 12.78° C | 33% | 1026.3 hPa | 0 mm | - | - | - |
| 1777495203 | 12.78° C | 33% | 1026.2 hPa | 0 mm | - | - | - |
| 1777494334 | 12.78° C | 33% | 1026.1 hPa | 0 mm | - | - | - |
| 1777493402 | 13.33° C | 32% | 1026 hPa | 0 mm | - | - | - |
| 1777492504 | 12.78° C | 34% | 1025.8 hPa | 0 mm | - | - | - |
| 1777491603 | 12.78° C | 34% | 1025.7 hPa | 0 mm | - | - | - |
* Rain latest hour (hover to see other rain measurements)
** Current wind speed in m/s (hover to see current wind gust speed)